Location: *
(58.7167°N, 26.1833°E)
Time: 15:40:12
(UTC+00:00)

Cosmos 1867 - Pass Details

Date: 25 August 2019
Orbit: 775 x 801 km, 65.0° (Epoch: 19 September)

Event Time Altitude Azimuth Distance (km) Brightness Sun altitude
Rises 19:58:18 0° 308° (NW) 3,321 8.3 -15.2°
Reaches altitude 10° 20:00:52 10° 301° (WNW) 2,387 7.1 -15.3°
Maximum altitude 20:05:56 39° 235° (SW) 1,188 4.4 -15.7°
Enters shadow 20:09:05 20° 179° (S) 1,753 4.9 -15.9°
